Location: Les Jeannots
(43.2262°N, 5.5774°E)
Time: 08:41:00
(UTC+00:00)

COSMOS 2428 - Pass Details

Date: 05 July 2020
Orbit: 844 x 859 km, 70.9° (Epoch: 05 August)

Event Time Altitude Azimuth Distance (km) Brightness Sun altitude
Exits shadow 20:15:33 - 155° (SSE) 2,594 4.7 -8.8°
Reaches altitude 10° 20:16:01 10° 152° (SSE) 2,457 4.5 -8.8°
Maximum altitude 20:20:22 24° 101° (ESE) 1,702 3.8 -9.4°
Drops below altitude 10° 20:24:45 10° 51° (NE) 2,472 5.1 -10.0°
Sets 20:27:38 0° 37° (NE) 3,413 6.0 -10.3°
